Location: Branche des Alpilles
(43.6087°N, 4.6976°E)
Time: 05:44:50
(UTC+00:00)

H-2A R/B - Pass Details

Date: 30 November 2020
Orbit: 578 x 654 km, 98.5° (Epoch: 27 January)

Event Time Altitude Azimuth Distance (km) Brightness Sun altitude
Rises 17:36:16 0° 4° (N) 2,843 5.3 -15.9°
Reaches altitude 10° 17:38:35 10° 354° (N) 1,948 4.5 -16.3°
Maximum altitude 17:42:20 32° 291° (WNW) 1,049 3.7 -17.0°
Drops below altitude 10° 17:46:09 10° 229° (SW) 1,976 5.6 -17.6°
Sets 17:48:31 0° 219° (SW) 2,891 6.4 -18.1°
